Whiting Fld NAS, FL

10:31 PM CDT on March 22, 2017 (GMT -0500)
Whiting Field Naval Air Station (North)

Weather History for KNSE - August, 2014

Change the Weather History Date:

Tuesday, August 12, 2014

  Actual Average Record
Temperature  
Mean Temperature 82 °F -  
Max Temperature 91 °F 87 °F 98 °F (2015)
Min Temperature 72 °F 70 °F 69 °F (2002)
Cooling Degree Days 16    
Growing Degree Days 32 (Base 50)    
Moisture  
Dew Point 71 °F    
Average Humidity 82    
Maximum Humidity 93    
Minimum Humidity 53    
Precipitation  
Precipitation 0.79 in - - ()
Sea Level Pressure  
Sea Level Pressure 29.90 in    
Wind  
Wind Speed 6 mph (WSW)    
Max Wind Speed 21 mph    
Max Gust Speed 31 mph    
Visibility 8 miles    
Events Rain , Thunderstorm    
Averages and records for this station are not official NWS values.
T = Trace of Precipitation, MM = Missing Value Source: NWS Daily Summary

Daily Weather History Graph

Daily Weather History Graph

Search for Another Location

Airport or City:

Trip Planner

Search our weather history database for the weather conditions in past years. The results will help you decide how hot, cold, wet, or windy it might be!

Date:

Astronomy

Aug. 12, 2014 Rise Set
Actual Time 6:12 AM CDT 7:33 PM CDT
Civil Twilight 5:47 AM CDT 7:58 PM CDT
Nautical Twilight 5:16 AM CDT 8:28 PM CDT
Astronomical Twilight 4:44 AM CDT 9:00 PM CDT
Moon 8:55 PM CDT (8/12) 8:17 AM CDT (8/12)
Length of Visible Light 14h 11m
Length of Day
13h 20m
Waning Gibbous, 94% of the Moon is Illuminated
Aug 12
Waning Gibbous
Aug 17
Last Quarter
Aug 25
New
Sep 2
First Quarter
Sep 8
Full

Hourly Weather History & Observations

Time (CDT) Temp. Heat Index Dew Point Humidity Pressure Visibility Wind Dir Wind Speed Gust Speed Precip Events Conditions
12:56 AM 75.0 °F - 70.0 °F 84% 29.92 in 10.0 mi NW 5.8 mph - N/A   Clear
1:56 AM 73.0 °F - 70.0 °F 90% 29.92 in 9.0 mi WNW 4.6 mph - N/A   Clear
2:56 AM 73.0 °F - 70.0 °F 90% 29.91 in 8.0 mi West 3.5 mph - N/A   Clear
3:56 AM 73.0 °F - 70.0 °F 90% 29.90 in 8.0 mi NW 4.6 mph - N/A   Clear
4:56 AM 73.0 °F - 70.0 °F 90% 29.88 in 9.0 mi Calm Calm - N/A   Clear
5:56 AM 72.0 °F - 69.1 °F 91% 29.88 in 9.0 mi Calm Calm - N/A   Scattered Clouds
6:56 AM 73.0 °F - 70.0 °F 90% 29.90 in 7.0 mi Calm Calm - N/A   Scattered Clouds
7:56 AM 77.0 °F - 71.1 °F 82% 29.90 in 10.0 mi NW 6.9 mph - N/A   Scattered Clouds
8:56 AM 80.1 °F 83.6 °F 71.1 °F 74% 29.92 in 10.0 mi Calm Calm - N/A   Scattered Clouds
9:56 AM 82.9 °F 88.0 °F 72.0 °F 69% 29.92 in 10.0 mi WSW 4.6 mph - N/A   Mostly Cloudy
10:56 AM 84.9 °F 90.7 °F 72.0 °F 65% 29.92 in 10.0 mi WSW 8.1 mph - N/A   Mostly Cloudy
12:56 PM 89.1 °F 94.1 °F 70.0 °F 53% 29.90 in 10.0 mi SW 8.1 mph - N/A   Mostly Cloudy
1:56 PM 91.0 °F 99.3 °F 73.0 °F 55% 29.88 in 10.0 mi SW 10.4 mph 16.1 mph N/A   Mostly Cloudy
2:43 PM 87.1 °F 92.8 °F 71.1 °F 59% 29.91 in 10.0 mi SSW 10.4 mph 17.3 mph N/A Thunderstorm Thunderstorm
2:56 PM 78.1 °F - 71.1 °F 79% 29.88 in 6.0 mi NNW 20.7 mph 31.1 mph 0.01 in Rain , Thunderstorm Light Thunderstorms and Rain
3:07 PM 75.0 °F - 71.1 °F 87% 29.92 in 3.0 mi WNW 15.0 mph 26.5 mph 0.22 in Rain , Thunderstorm Heavy Thunderstorms and Rain
3:34 PM 75.0 °F - 70.0 °F 84% 29.91 in 3.0 mi SW 15.0 mph - 0.59 in Rain , Thunderstorm Heavy Thunderstorms and Rain
3:56 PM 81.0 °F 85.8 °F 73.0 °F 77% 29.87 in 10.0 mi SSW 6.9 mph - 0.60 in Rain , Thunderstorm Light Thunderstorms and Rain
4:04 PM 82.0 °F 87.9 °F 73.9 °F 76% 29.91 in 10.0 mi WSW 4.6 mph - 0.00 in   Mostly Cloudy
4:46 PM 80.1 °F 84.2 °F 73.0 °F 79% 29.91 in 10.0 mi East 3.5 mph - 0.00 in Thunderstorm Thunderstorm
4:56 PM 80.1 °F 84.5 °F 73.9 °F 81% 29.87 in 10.0 mi NNE 3.5 mph - 0.00 in Thunderstorm Thunderstorm
5:38 PM 75.9 °F - 72.0 °F 87% 29.92 in 4.0 mi North 4.6 mph - 0.05 in Rain , Thunderstorm Heavy Thunderstorms and Rain
5:56 PM 75.0 °F - 72.0 °F 90% 29.87 in 1.0 mi SSW 13.8 mph - 0.16 in Rain , Thunderstorm Heavy Thunderstorms and Rain
6:04 PM 75.0 °F - 71.1 °F 87% 29.92 in 3.0 mi SSW 15.0 mph - 0.02 in Rain , Thunderstorm Thunderstorms and Rain
6:20 PM 75.0 °F - 72.0 °F 90% 29.91 in 6.0 mi South 6.9 mph - 0.02 in Rain , Thunderstorm Light Thunderstorms and Rain
6:28 PM 75.0 °F - 71.1 °F 87% 29.91 in 8.0 mi SSW 5.8 mph - 0.02 in Rain Light Rain
6:56 PM 75.0 °F - 71.1 °F 87% 29.86 in 10.0 mi SSW 6.9 mph - 0.02 in Rain Light Rain
7:56 PM 75.0 °F - 71.1 °F 87% 29.86 in 10.0 mi Calm Calm - 0.00 in   Mostly Cloudy
8:56 PM 73.9 °F - 70.0 °F 87% 29.88 in 10.0 mi SW 4.6 mph - N/A   Scattered Clouds
9:56 PM 73.0 °F - 70.0 °F 90% 29.90 in 8.0 mi Calm Calm - N/A   Scattered Clouds
10:45 PM 73.0 °F - 70.0 °F 90% 29.94 in 7.0 mi Calm Calm - N/A   Scattered Clouds
10:56 PM 73.0 °F - 70.0 °F 90% 29.90 in 6.0 mi Calm Calm - N/A   Clear
11:56 PM 72.0 °F - 70.0 °F 93% 29.90 in 5.0 mi NNW 3.5 mph - N/A   Clear